This is the latest recevied weather packets stored in our database for station/object PA1CD-13. If no packets are shown the sender has not sent any weather packets the latest 1 day(s).
| Time | Temp. | Humidity | Pressure | Rain* | Wind** | Luminosity | Snow |
|---|---|---|---|---|---|---|---|
| 1778004364 | 11.11° C | 51% | 1010 hPa | 0 mm | 0.45 m/s, 63° | 69 W/m² | - |
| 1778004244 | 11.11° C | 51% | 1009.9 hPa | 0 mm | 0 m/s | 70 W/m² | - |
| 1778004125 | 11.11° C | 51% | 1010 hPa | 0 mm | 0.45 m/s, 0° | 83 W/m² | - |
| 1778004007 | 11.11° C | 51% | 1009.9 hPa | 0 mm | 0.89 m/s, 73° | 116 W/m² | - |
| 1778003884 | 11.11° C | 52% | 1009.9 hPa | 0 mm | 0.45 m/s, 68° | 107 W/m² | - |
| 1778003764 | 11.11° C | 52% | 1009.9 hPa | 0 mm | 1.34 m/s, 59° | 98 W/m² | - |
| 1778003646 | 11.11° C | 52% | 1009.9 hPa | 0 mm | 0.45 m/s, 71° | 98 W/m² | - |
| 1778003523 | 11.11° C | 52% | 1009.9 hPa | 0 mm | 0 m/s | 90 W/m² | - |
| 1778003405 | 11.11° C | 52% | 1009.9 hPa | 0 mm | 0 m/s | 97 W/m² | - |
| 1778003283 | 11.11° C | 52% | 1009.9 hPa | 0 mm | 0 m/s | 92 W/m² | - |
| 1778003164 | 11.11° C | 52% | 1009.9 hPa | 0 mm | 0 m/s | 93 W/m² | - |
| 1778003045 | 11.11° C | 52% | 1009.9 hPa | 0 mm | 0 m/s | 93 W/m² | - |
| 1778002924 | 11.11° C | 52% | 1009.9 hPa | 0 mm | 0 m/s | 107 W/m² | - |
| 1778002805 | 11.11° C | 54% | 1009.9 hPa | 0 mm | 1.79 m/s, 0° | 84 W/m² | - |
| 1778002684 | 11.11° C | 54% | 1009.9 hPa | 0 mm | 0.89 m/s, 0° | 84 W/m² | - |
| 1778002564 | 11.11° C | 54% | 1009.9 hPa | 0 mm | 1.34 m/s, 0° | 70 W/m² | - |
| 1778002444 | 11.11° C | 54% | 1009.8 hPa | 0 mm | 1.34 m/s, 0° | 70 W/m² | - |
| 1778002324 | 11.11° C | 54% | 1009.9 hPa | 0 mm | 1.34 m/s, 111° | 72 W/m² | - |
| 1778002207 | 11.11° C | 53% | 1009.9 hPa | 0 mm | 2.68 m/s, 0° | 76 W/m² | - |
| 1778002092 | 11.11° C | 54% | 1009.9 hPa | 0 mm | 0.45 m/s, 0° | 81 W/m² | - |
| 1778001963 | 11.11° C | 54% | 1009.9 hPa | 0 mm | 0.45 m/s, 0° | 81 W/m² | - |
| 1778001844 | 11.11° C | 54% | 1009.9 hPa | 0 mm | 0.89 m/s, 66° | 81 W/m² | - |
| 1778001724 | 11.11° C | 54% | 1009.9 hPa | 0 mm | 1.34 m/s, 71° | 81 W/m² | - |
| 1778001605 | 11.67° C | 54% | 1009.9 hPa | 0 mm | 1.79 m/s, 0° | 88 W/m² | - |
| 1778001484 | 11.67° C | 55% | 1009.9 hPa | 0 mm | 2.24 m/s, 0° | 100 W/m² | - |
* Rain latest hour (hover to see other rain measurements)
** Current wind speed in m/s (hover to see current wind gust speed)